CDT,Max TemperatureF,Mean TemperatureF,Min TemperatureF,Max Dew PointF,MeanDew PointF,Min DewpointF,Max Humidity, Mean Humidity, Min Humidity, Max Sea Level PressureIn, Mean Sea Level PressureIn, Min Sea Level PressureIn, Max VisibilityMiles, Mean VisibilityMiles, Min VisibilityMiles, Max Wind SpeedMPH, Mean Wind SpeedMPH, Max Gust SpeedMPH,PrecipitationIn, CloudCover, Events, WindDirDegrees
2012-8-1,84,76,69,75,71,68,100,84,66,30.05,29.99,29.92,8,7,2,8,2,,0.00,4,Rain,54
2012-8-2,86,77,68,73,70,66,100,81,62,30.01,29.96,29.90,7,7,7,14,3,,0.00,2,,75
2012-8-3,87,78,69,73,71,68,94,78,55,29.99,29.94,29.89,7,7,7,16,4,,0.00,3,,96
2012-8-4,86,78,71,73,72,70,100,79,62,30.02,29.96,29.91,8,8,7,8,3,,0.00,4,,123
2012-8-5,86,78,71,73,72,70,94,78,62,30.04,29.99,29.93,8,8,7,14,4,,0.00,3,,57
2012-8-6,86,80,73,73,72,70,94,80,66,29.99,29.93,29.85,7,7,6,17,6,24,0.00,5,,52
2012-8-7,80,76,71,75,72,70,100,89,79,29.91,29.83,29.74,7,6,3,22,8,33,0.15,8,Rain,84
2012-8-8,80,76,73,75,73,70,94,86,79,29.94,29.86,29.80,7,6,3,21,15,31,3.55,8,Rain,114
2012-8-9,86,80,73,75,73,72,94,83,66,29.95,29.89,29.82,8,7,2,16,8,28,4.55,4,Rain,106
2012-8-10,86,78,71,73,72,70,94,83,62,29.95,29.90,29.83,10,8,7,17,5,,0.00,3,,105
2012-8-11,84,78,71,75,72,70,94,84,66,29.99,29.93,29.89,8,7,5,14,3,,0.00,3,Rain,116
2012-8-12,82,76,71,75,73,70,100,89,74,30.06,29.98,29.92,7,7,6,17,5,,0.50,6,,108
2012-8-13,86,80,73,75,74,72,100,86,66,30.05,30.00,29.96,7,7,7,14,5,,0.00,3,,69
2012-8-14,86,78,71,75,73,70,100,83,70,30.04,29.97,29.90,7,7,1,17,5,29,8.05,5,Rain-Thunderstorm,64
2012-8-15,84,78,71,73,71,70,94,83,66,30.02,29.95,29.88,7,7,6,18,5,,0.00,6,Thunderstorm,102
2012-8-16,84,78,73,75,71,70,100,79,62,30.05,29.99,29.94,8,7,6,18,7,,0.00,5,,110
2012-8-17,86,78,71,77,73,70,100,86,62,30.10,29.99,29.92,8,7,6,10,3,,0.00,5,Rain,112
2012-8-18,86,78,69,77,73,70,100,86,62,30.01,29.95,29.89,8,8,7,9,2,,0.00,4,,124
2012-8-19,86,78,71,75,73,72,100,85,66,30.02,29.96,29.91,8,7,7,16,3,20,0.00,3,,141
2012-8-20,86,78,71,75,73,72,100,84,66,30.01,29.95,29.91,8,8,7,14,4,18,0.00,3,,130
2012-8-21,86,80,73,75,73,72,100,84,66,30.04,29.97,29.92,8,7,7,14,7,20,0.00,2,,124
2012-8-22,87,81,75,73,72,70,94,79,55,30.06,29.99,29.93,8,7,6,17,8,33,0.00,3,,111
2012-8-23,87,81,73,75,73,72,94,81,62,30.04,29.96,29.88,8,8,7,17,5,,0.00,3,Thunderstorm,84
2012-8-24,86,80,75,75,73,72,94,82,66,29.97,29.90,29.83,8,7,7,17,6,20,0.00,5,,65
2012-8-25,84,80,75,75,73,72,94,81,66,29.90,29.82,29.76,8,7,7,15,9,17,0.00,3,,40
2012-8-26,86,80,75,73,71,70,89,75,62,30.11,29.82,29.75,8,7,7,16,8,,0.00,2,,28
2012-8-27,89,82,75,75,72,68,94,77,49,29.90,29.83,29.78,7,7,7,9,5,,0.00,3,,256
2012-8-28,82,78,73,75,73,70,100,90,74,29.97,29.89,29.79,8,7,3,6,2,16,6.60,5,Rain,167
2012-8-29,86,78,71,75,74,72,100,85,66,29.95,29.88,29.81,8,7,7,14,4,,0.00,5,,134
2012-8-30,84,80,75,75,73,70,94,81,62,29.99,29.91,29.85,8,7,7,17,7,,2.45,5,,125
2012-8-31,86,80,75,73,73,72,94,81,62,30.08,30.00,29.94,8,8,7,21,8,,0.00,4,,101